Location: ???
(35.5616°N, 139.7977°E)
Time: 19:52:01
(UTC+00:00)

ATLAS 3B R/B - Pass Details

Date: 17 November 2025
Orbit: 935 x 1258 km, 63.8° (Epoch: 08 December)

Event Time Altitude Azimuth Distance (km) Brightness Sun altitude
Exits shadow 18:09:38 40° 143° (SE) 1,684 3.8 -38.4°
Maximum altitude 18:11:14 45° 112° (ESE) 1,584 3.8 -38.1°
Drops below altitude 10° 18:18:28 10° 43° (NE) 3,209 5.6 -36.6°
Sets 18:21:26 0° 38° (NE) 4,199 6.3 -36.0°
